owner,sensor,date,latitude,longitude,vertical_datum,mass_concentration_of_oxygen_in_sea_water,qcFlag 
SCCF RECON,ioos:station:SCCF:11:1,2011-04-01T00:00:00Z,26.4679,-82.0631,1.555,6.75,1111122 
SCCF RECON,ioos:station:SCCF:11:1,2011-04-01T01:00:00Z,26.4679,-82.0631,1.71,6.4,1111122 
SCCF RECON,ioos:station:SCCF:11:1,2011-04-01T02:00:00Z,26.4679,-82.0631,1.82,6.17,1111122 
SCCF RECON,ioos:station:SCCF:11:1,2011-04-01T03:00:00Z,26.4679,-82.0631,1.925,6.22,1111122 
SCCF RECON,ioos:station:SCCF:11:1,2011-04-01T04:00:00Z,26.4679,-82.0631,1.98,6.14,1111122 
SCCF RECON,ioos:station:SCCF:11:1,2011-04-01T05:00:00Z,26.4679,-82.0631,1.96,5.99,1111122 
SCCF RECON,ioos:station:SCCF:11:1,2011-04-01T06:00:00Z,26.4679,-82.0631,1.849,6.01,1111122 
SCCF RECON,ioos:station:SCCF:11:1,2011-04-01T07:00:00Z,26.4679,-82.0631,1.739,5.72,1111122 
SCCF RECON,ioos:station:SCCF:11:1,2011-04-01T08:00:00Z,26.4679,-82.0631,1.664,5.66,1111122 
SCCF RECON,ioos:station:SCCF:11:1,2011-04-01T09:00:00Z,26.4679,-82.0631,1.58,5.54,1111122 
SCCF RECON,ioos:station:SCCF:11:1,2011-04-01T10:00:00Z,26.4679,-82.0631,1.52,5.29,1111122 
SCCF RECON,ioos:station:SCCF:11:1,2011-04-01T11:00:00Z,26.4679,-82.0631,1.48,5.18,1111122 
SCCF RECON,ioos:station:SCCF:11:1,2011-04-01T12:00:00Z,26.4679,-82.0631,1.5,5.24,1111122 
SCCF RECON,ioos:station:SCCF:11:1,2011-04-01T13:00:00Z,26.4679,-82.0631,1.62,5.08,1111122 
SCCF RECON,ioos:station:SCCF:11:1,2011-04-01T14:00:00Z,26.4679,-82.0631,1.762,5.46,1111122 
SCCF RECON,ioos:station:SCCF:11:1,2011-04-01T15:00:00Z,26.4679,-82.0631,1.839,5.53,1111122 
SCCF RECON,ioos:station:SCCF:11:1,2011-04-01T16:00:00Z,26.4679,-82.0631,1.891,5.64,1111122 
SCCF RECON,ioos:station:SCCF:11:1,2011-04-01T17:00:00Z,26.4679,-82.0631,1.883,6.72,1111122 
SCCF RECON,ioos:station:SCCF:11:1,2011-04-01T18:00:00Z,26.4679,-82.0631,1.796,7.05,1111122 
SCCF RECON,ioos:station:SCCF:11:1,2011-04-01T19:00:00Z,26.4679,-82.0631,1.687,7.41,1111122 
SCCF RECON,ioos:station:SCCF:11:1,2011-04-01T20:00:00Z,26.4679,-82.0631,1.581,7.8,1111122 
SCCF RECON,ioos:station:SCCF:11:1,2011-04-01T21:00:00Z,26.4679,-82.0631,1.483,8.08,1111122 
SCCF RECON,ioos:station:SCCF:11:1,2011-04-01T22:00:00Z,26.4679,-82.0631,1.4,8.04,1111122 
SCCF RECON,ioos:station:SCCF:11:1,2011-04-01T23:00:00Z,26.4679,-82.0631,1.325,8.03,1111122 
SCCF RECON,ioos:station:SCCF:11:1,2011-04-02T00:00:00Z,26.4679,-82.0631,1.299,7.89,1111122 
SCCF RECON,ioos:station:SCCF:11:1,2011-04-02T01:00:00Z,26.4679,-82.0631,1.383,7.39,1111122 
SCCF RECON,ioos:station:SCCF:11:1,2011-04-02T02:00:00Z,26.4679,-82.0631,1.536,7.29,1111122 
SCCF RECON,ioos:station:SCCF:11:1,2011-04-02T03:00:00Z,26.4679,-82.0631,1.68,7.07,1111122 
SCCF RECON,ioos:station:SCCF:11:1,2011-04-02T04:00:00Z,26.4679,-82.0631,1.79,7.11,1111122 
SCCF RECON,ioos:station:SCCF:11:1,2011-04-02T05:00:00Z,26.4679,-82.0631,1.855,6.77,1111122 
SCCF RECON,ioos:station:SCCF:11:1,2011-04-02T06:00:00Z,26.4679,-82.0631,1.84,6.6,1111122 
SCCF RECON,ioos:station:SCCF:11:1,2011-04-02T07:00:00Z,26.4679,-82.0631,1.74,6.65,1111122 
SCCF RECON,ioos:station:SCCF:11:1,2011-04-02T08:00:00Z,26.4679,-82.0631,1.619,6.31,1111122 
SCCF RECON,ioos:station:SCCF:11:1,2011-04-02T09:00:00Z,26.4679,-82.0631,1.529,5.99,1111122 
SCCF RECON,ioos:station:SCCF:11:1,2011-04-02T10:00:00Z,26.4679,-82.0631,1.47,5.83,1111122 
SCCF RECON,ioos:station:SCCF:11:1,2011-04-02T11:00:00Z,26.4679,-82.0631,1.42,5.6,1111122 
SCCF RECON,ioos:station:SCCF:11:1,2011-04-02T12:00:00Z,26.4679,-82.0631,1.43,5.39,1111122 
SCCF RECON,ioos:station:SCCF:11:1,2011-04-02T13:00:00Z,26.4679,-82.0631,1.521,5.56,1111122 
SCCF RECON,ioos:station:SCCF:11:1,2011-04-02T14:00:00Z,26.4679,-82.0631,1.679,6.21,1111122 
SCCF RECON,ioos:station:SCCF:11:1,2011-04-02T15:00:00Z,26.4679,-82.0631,1.799,6.37,1111122 
SCCF RECON,ioos:station:SCCF:11:1,2011-04-02T16:00:00Z,26.4679,-82.0631,1.883,6.41,1111122 
SCCF RECON,ioos:station:SCCF:11:1,2011-04-02T17:00:00Z,26.4679,-82.0631,1.903,6.67,1111122 
SCCF RECON,ioos:station:SCCF:11:1,2011-04-02T18:00:00Z,26.4679,-82.0631,1.881,6.81,1111122 
SCCF RECON,ioos:station:SCCF:11:1,2011-04-02T19:00:00Z,26.4679,-82.0631,1.789,7.1,1111122 
SCCF RECON,ioos:station:SCCF:11:1,2011-04-02T20:00:00Z,26.4679,-82.0631,1.649,7.95,1111122 
SCCF RECON,ioos:station:SCCF:11:1,2011-04-02T21:00:00Z,26.4679,-82.0631,1.53,8.13,1111122 
SCCF RECON,ioos:station:SCCF:11:1,2011-04-02T22:00:00Z,26.4679,-82.0631,1.43,8.1,1111122 
SCCF RECON,ioos:station:SCCF:11:1,2011-04-02T23:00:00Z,26.4679,-82.0631,1.34,7.99,1111122 
SCCF RECON,ioos:station:SCCF:11:1,2011-04-03T00:00:00Z,26.4679,-82.0631,1.289,7.87,1111122 
SCCF RECON,ioos:station:SCCF:11:1,2011-04-03T01:00:00Z,26.4679,-82.0631,1.32,7.96,1111122 
SCCF RECON,ioos:station:SCCF:11:1,2011-04-03T02:00:00Z,26.4679,-82.0631,1.454,7.04,1111122 
SCCF RECON,ioos:station:SCCF:11:1,2011-04-03T03:00:00Z,26.4679,-82.0631,1.613,7.19,1111122 
SCCF RECON,ioos:station:SCCF:11:1,2011-04-03T04:00:00Z,26.4679,-82.0631,1.75,7.18,1111122 
SCCF RECON,ioos:station:SCCF:11:1,2011-04-03T05:00:00Z,26.4679,-82.0631,1.84,7.02,1111122 
SCCF RECON,ioos:station:SCCF:11:1,2011-04-03T06:00:00Z,26.4679,-82.0631,1.87,6.65,1111122 
SCCF RECON,ioos:station:SCCF:11:1,2011-04-03T07:00:00Z,26.4679,-82.0631,1.818,6.92,1111122 
SCCF RECON,ioos:station:SCCF:11:1,2011-04-03T08:00:00Z,26.4679,-82.0631,1.7,6.63,1111122 
SCCF RECON,ioos:station:SCCF:11:1,2011-04-03T09:00:00Z,26.4679,-82.0631,1.6,6.34,1111122 
SCCF RECON,ioos:station:SCCF:11:1,2011-04-03T10:00:00Z,26.4679,-82.0631,1.529,6.05,1111122 
SCCF RECON,ioos:station:SCCF:11:1,2011-04-03T11:00:00Z,26.4679,-82.0631,1.46,5.89,1111122 
SCCF RECON,ioos:station:SCCF:11:1,2011-04-03T12:00:00Z,26.4679,-82.0631,1.399,5.88,1111122 
SCCF RECON,ioos:station:SCCF:11:1,2011-04-03T13:00:00Z,26.4679,-82.0631,1.41,5.75,1111122 
SCCF RECON,ioos:station:SCCF:11:1,2011-04-03T14:00:00Z,26.4679,-82.0631,1.502,6.19,1111122 
SCCF RECON,ioos:station:SCCF:11:1,2011-04-03T15:00:00Z,26.4679,-82.0631,1.64,6.49,1111122 
SCCF RECON,ioos:station:SCCF:11:1,2011-04-03T16:00:00Z,26.4679,-82.0631,1.744,6.64,1111122 
SCCF RECON,ioos:station:SCCF:11:1,2011-04-03T17:00:00Z,26.4679,-82.0631,1.82,6.81,1111122 
SCCF RECON,ioos:station:SCCF:11:1,2011-04-03T18:00:00Z,26.4679,-82.0631,1.848,7.12,1111122 
SCCF RECON,ioos:station:SCCF:11:1,2011-04-03T19:00:00Z,26.4679,-82.0631,1.78,7.17,1111122 
SCCF RECON,ioos:station:SCCF:11:1,2011-04-03T20:00:00Z,26.4679,-82.0631,1.63,7.54,1111122 
SCCF RECON,ioos:station:SCCF:11:1,2011-04-03T21:00:00Z,26.4679,-82.0631,1.49,7.76,1111122 
SCCF RECON,ioos:station:SCCF:11:1,2011-04-03T22:00:00Z,26.4679,-82.0631,1.389,8.19,1111122 
SCCF RECON,ioos:station:SCCF:11:1,2011-04-03T23:00:00Z,26.4679,-82.0631,1.306,8.27,1111122 
SCCF RECON,ioos:station:SCCF:11:1,2011-04-04T00:00:00Z,26.4679,-82.0631,1.241,8.11,1111122 
SCCF RECON,ioos:station:SCCF:11:1,2011-04-04T01:00:00Z,26.4679,-82.0631,1.262,8.76,1111122 
SCCF RECON,ioos:station:SCCF:11:1,2011-04-04T02:00:00Z,26.4679,-82.0631,1.37,7.31,1111122 
SCCF RECON,ioos:station:SCCF:11:1,2011-04-04T03:00:00Z,26.4679,-82.0631,1.53,7.33,1111122 
SCCF RECON,ioos:station:SCCF:11:1,2011-04-04T04:00:00Z,26.4679,-82.0631,1.671,6.88,1111122 
SCCF RECON,ioos:station:SCCF:11:1,2011-04-04T05:00:00Z,26.4679,-82.0631,1.788,6.8,1111122 
SCCF RECON,ioos:station:SCCF:11:1,2011-04-04T06:00:00Z,26.4679,-82.0631,1.86,6.63,1111122 
SCCF RECON,ioos:station:SCCF:11:1,2011-04-04T07:00:00Z,26.4679,-82.0631,1.87,6.37,1111122 
SCCF RECON,ioos:station:SCCF:11:1,2011-04-04T08:00:00Z,26.4679,-82.0631,1.8,6.56,1111122 
SCCF RECON,ioos:station:SCCF:11:1,2011-04-04T09:00:00Z,26.4679,-82.0631,1.699,6.48,1111122 
SCCF RECON,ioos:station:SCCF:11:1,2011-04-04T10:00:00Z,26.4679,-82.0631,1.607,6.37,1111122 
SCCF RECON,ioos:station:SCCF:11:1,2011-04-04T11:00:00Z,26.4679,-82.0631,1.56,6.16,1111122 
SCCF RECON,ioos:station:SCCF:11:1,2011-04-04T12:00:00Z,26.4679,-82.0631,1.53,6.05,1111122 
SCCF RECON,ioos:station:SCCF:11:1,2011-04-04T13:00:00Z,26.4679,-82.0631,1.561,5.83,1111122 
SCCF RECON,ioos:station:SCCF:11:1,2011-04-04T14:00:00Z,26.4679,-82.0631,1.68,6.03,1111122 
SCCF RECON,ioos:station:SCCF:11:1,2011-04-04T15:00:00Z,26.4679,-82.0631,1.804,6.53,1111122 
SCCF RECON,ioos:station:SCCF:11:1,2011-04-04T16:00:00Z,26.4679,-82.0631,1.891,6.73,1111122 
SCCF RECON,ioos:station:SCCF:11:1,2011-04-04T18:00:00Z,26.4679,-82.0631,1.984,6.62,1111122 
SCCF RECON,ioos:station:SCCF:11:1,2011-04-04T19:00:00Z,26.4679,-82.0631,1.96,6.88,1111122 
SCCF RECON,ioos:station:SCCF:11:1,2011-04-04T20:00:00Z,26.4679,-82.0631,1.879,7.82,1111122 
SCCF RECON,ioos:station:SCCF:11:1,2011-04-04T21:00:00Z,26.4679,-82.0631,1.73,8.15,1111122 
SCCF RECON,ioos:station:SCCF:11:1,2011-04-04T22:00:00Z,26.4679,-82.0631,1.58,7.99,1111122 
SCCF RECON,ioos:station:SCCF:11:1,2011-04-04T23:00:00Z,26.4679,-82.0631,1.46,7.9,1111122 
SCCF RECON,ioos:station:SCCF:11:1,2011-04-05T00:00:00Z,26.4679,-82.0631,1.35,7.7,1111122 
SCCF RECON,ioos:station:SCCF:11:1,2011-04-05T01:00:00Z,26.4679,-82.0631,1.31,7.37,1111122 
SCCF RECON,ioos:station:SCCF:11:1,2011-04-05T02:00:00Z,26.4679,-82.0631,1.36,6.74,1111122 
SCCF RECON,ioos:station:SCCF:11:1,2011-04-05T03:00:00Z,26.4679,-82.0631,1.5,6.85,1111122 
SCCF RECON,ioos:station:SCCF:11:1,2011-04-05T04:00:00Z,26.4679,-82.0631,1.66,6.54,1111122 
SCCF RECON,ioos:station:SCCF:11:1,2011-04-05T05:00:00Z,26.4679,-82.0631,1.77,6.34,1111122 
SCCF RECON,ioos:station:SCCF:11:1,2011-04-05T06:00:00Z,26.4679,-82.0631,1.86,6.19,1111122 
SCCF RECON,ioos:station:SCCF:11:1,2011-04-05T07:00:00Z,26.4679,-82.0631,1.92,5.73,1111122 
SCCF RECON,ioos:station:SCCF:11:1,2011-04-05T08:00:00Z,26.4679,-82.0631,1.926,5.83,1111122 
SCCF RECON,ioos:station:SCCF:11:1,2011-04-05T09:00:00Z,26.4679,-82.0631,1.86,6.0,1111122 
SCCF RECON,ioos:station:SCCF:11:1,2011-04-05T10:00:00Z,26.4679,-82.0631,1.76,5.89,1111122 
SCCF RECON,ioos:station:SCCF:11:1,2011-04-05T11:00:00Z,26.4679,-82.0631,1.68,5.82,1111122 
SCCF RECON,ioos:station:SCCF:11:1,2011-04-05T12:00:00Z,26.4679,-82.0631,1.65,5.55,1111122 
SCCF RECON,ioos:station:SCCF:11:1,2011-04-05T13:00:00Z,26.4679,-82.0631,1.677,5.02,1111122 
SCCF RECON,ioos:station:SCCF:11:1,2011-04-05T14:00:00Z,26.4679,-82.0631,1.76,5.46,1111122 
SCCF RECON,ioos:station:SCCF:11:1,2011-04-05T15:00:00Z,26.4679,-82.0631,1.868,6.03,1111122 
SCCF RECON,ioos:station:SCCF:11:1,2011-04-05T16:00:00Z,26.4679,-82.0631,2.039,6.06,1111122 
SCCF RECON,ioos:station:SCCF:11:1,2011-04-05T17:00:00Z,26.4679,-82.0631,2.088,6.14,1111122 
SCCF RECON,ioos:station:SCCF:11:1,2011-04-05T18:00:00Z,26.4679,-82.0631,1.997,6.31,1111122 
SCCF RECON,ioos:station:SCCF:11:1,2011-04-05T19:00:00Z,26.4679,-82.0631,1.91,6.48,1111122 
SCCF RECON,ioos:station:SCCF:11:1,2011-04-05T20:00:00Z,26.4679,-82.0631,1.934,6.56,1111122 
SCCF RECON,ioos:station:SCCF:11:1,2011-04-05T21:00:00Z,26.4679,-82.0631,1.779,6.66,1111122 
SCCF RECON,ioos:station:SCCF:11:1,2011-04-05T22:00:00Z,26.4679,-82.0631,1.635,6.55,1111122 
SCCF RECON,ioos:station:SCCF:11:1,2011-04-05T23:00:00Z,26.4679,-82.0631,1.55,6.54,1111122 
SCCF RECON,ioos:station:SCCF:11:1,2011-04-06T00:00:00Z,26.4679,-82.0631,1.45,6.4,1111122 
SCCF RECON,ioos:station:SCCF:11:1,2011-04-06T01:00:00Z,26.4679,-82.0631,1.314,6.1,1111122 
SCCF RECON,ioos:station:SCCF:11:1,2011-04-06T02:00:00Z,26.4679,-82.0631,1.27,5.97,1111122 
SCCF RECON,ioos:station:SCCF:11:1,2011-04-06T03:00:00Z,26.4679,-82.0631,1.33,6.05,1111122 
SCCF RECON,ioos:station:SCCF:11:1,2011-04-06T04:00:00Z,26.4679,-82.0631,1.373,5.99,1111122 
SCCF RECON,ioos:station:SCCF:11:1,2011-04-06T05:00:00Z,26.4679,-82.0631,1.497,5.83,1111122 
SCCF RECON,ioos:station:SCCF:11:1,2011-04-06T06:00:00Z,26.4679,-82.0631,1.651,6.06,1111122 
SCCF RECON,ioos:station:SCCF:11:1,2011-04-06T07:00:00Z,26.4679,-82.0631,1.72,6.1,1111122 
SCCF RECON,ioos:station:SCCF:11:1,2011-04-06T08:00:00Z,26.4679,-82.0631,1.729,5.97,1111122 
SCCF RECON,ioos:station:SCCF:11:1,2011-04-06T09:00:00Z,26.4679,-82.0631,1.751,5.99,1111122 
SCCF RECON,ioos:station:SCCF:11:1,2011-04-06T10:00:00Z,26.4679,-82.0631,1.668,5.88,1111122 
SCCF RECON,ioos:station:SCCF:11:1,2011-04-06T11:00:00Z,26.4679,-82.0631,1.56,5.7,1111122 
SCCF RECON,ioos:station:SCCF:11:1,2011-04-06T12:00:00Z,26.4679,-82.0631,1.502,5.42,1111122 
SCCF RECON,ioos:station:SCCF:11:1,2011-04-06T13:00:00Z,26.4679,-82.0631,1.5,5.46,1111122 
SCCF RECON,ioos:station:SCCF:11:1,2011-04-06T14:00:00Z,26.4679,-82.0631,1.568,5.98,1111122 
SCCF RECON,ioos:station:SCCF:11:1,2011-04-06T15:00:00Z,26.4679,-82.0631,1.671,6.44,1111122 
SCCF RECON,ioos:station:SCCF:11:1,2011-04-06T16:00:00Z,26.4679,-82.0631,1.795,6.69,1111122 
SCCF RECON,ioos:station:SCCF:11:1,2011-04-06T17:00:00Z,26.4679,-82.0631,1.893,6.92,1111122 
SCCF RECON,ioos:station:SCCF:11:1,2011-04-06T18:00:00Z,26.4679,-82.0631,1.951,7.2,1111122 
SCCF RECON,ioos:station:SCCF:11:1,2011-04-06T19:00:00Z,26.4679,-82.0631,1.986,7.35,1111122 
SCCF RECON,ioos:station:SCCF:11:1,2011-04-06T20:00:00Z,26.4679,-82.0631,1.95,7.42,1111122 
SCCF RECON,ioos:station:SCCF:11:1,2011-04-06T21:00:00Z,26.4679,-82.0631,1.84,7.59,1111122 
SCCF RECON,ioos:station:SCCF:11:1,2011-04-06T22:00:00Z,26.4679,-82.0631,1.702,7.81,1111122 
SCCF RECON,ioos:station:SCCF:11:1,2011-04-06T23:00:00Z,26.4679,-82.0631,1.581,8.16,1111122 
SCCF RECON,ioos:station:SCCF:11:1,2011-04-07T00:00:00Z,26.4679,-82.0631,1.467,8.2,1111122 
SCCF RECON,ioos:station:SCCF:11:1,2011-04-07T01:00:00Z,26.4679,-82.0631,1.358,8.04,1111122 
SCCF RECON,ioos:station:SCCF:11:1,2011-04-07T02:00:00Z,26.4679,-82.0631,1.29,7.75,1111122 
SCCF RECON,ioos:station:SCCF:11:1,2011-04-07T03:00:00Z,26.4679,-82.0631,1.29,7.32,1111122 
SCCF RECON,ioos:station:SCCF:11:1,2011-04-07T04:00:00Z,26.4679,-82.0631,1.373,6.74,1111122 
SCCF RECON,ioos:station:SCCF:11:1,2011-04-07T05:00:00Z,26.4679,-82.0631,1.51,6.74,1111122 
SCCF RECON,ioos:station:SCCF:11:1,2011-04-07T06:00:00Z,26.4679,-82.0631,1.616,6.8,1111122 
SCCF RECON,ioos:station:SCCF:11:1,2011-04-07T07:00:00Z,26.4679,-82.0631,1.699,6.67,1111122 
SCCF RECON,ioos:station:SCCF:11:1,2011-04-07T08:00:00Z,26.4679,-82.0631,1.74,6.5,1111122 
SCCF RECON,ioos:station:SCCF:11:1,2011-04-07T09:00:00Z,26.4679,-82.0631,1.75,6.66,1111122 
SCCF RECON,ioos:station:SCCF:11:1,2011-04-07T10:00:00Z,26.4679,-82.0631,1.721,6.51,1111122 
SCCF RECON,ioos:station:SCCF:11:1,2011-04-07T11:00:00Z,26.4679,-82.0631,1.66,6.49,1111122 
SCCF RECON,ioos:station:SCCF:11:1,2011-04-07T12:00:00Z,26.4679,-82.0631,1.64,6.29,1111122 
SCCF RECON,ioos:station:SCCF:11:1,2011-04-07T13:00:00Z,26.4679,-82.0631,1.65,6.12,1111122 
SCCF RECON,ioos:station:SCCF:11:1,2011-04-07T14:00:00Z,26.4679,-82.0631,1.67,6.34,1111122 
SCCF RECON,ioos:station:SCCF:11:1,2011-04-07T15:00:00Z,26.4679,-82.0631,1.77,6.26,1111122 
SCCF RECON,ioos:station:SCCF:11:1,2011-04-07T16:00:00Z,26.4679,-82.0631,1.891,6.45,1111122 
SCCF RECON,ioos:station:SCCF:11:1,2011-04-07T17:00:00Z,26.4679,-82.0631,1.99,6.9,1111122 
SCCF RECON,ioos:station:SCCF:11:1,2011-04-07T18:00:00Z,26.4679,-82.0631,2.041,6.52,1111122 
SCCF RECON,ioos:station:SCCF:11:1,2011-04-07T19:00:00Z,26.4679,-82.0631,2.06,6.85,1111122 
SCCF RECON,ioos:station:SCCF:11:1,2011-04-07T20:00:00Z,26.4679,-82.0631,2.03,7.16,1111122 
SCCF RECON,ioos:station:SCCF:11:1,2011-04-07T21:00:00Z,26.4679,-82.0631,1.96,8.44,1111122 
SCCF RECON,ioos:station:SCCF:11:1,2011-04-07T22:00:00Z,26.4679,-82.0631,1.845,8.84,1111122 
SCCF RECON,ioos:station:SCCF:11:1,2011-04-07T23:00:00Z,26.4679,-82.0631,1.72,8.35,1111122 
SCCF RECON,ioos:station:SCCF:11:1,2011-04-08T00:00:00Z,26.4679,-82.0631,1.601,8.11,1111122 
SCCF RECON,ioos:station:SCCF:11:1,2011-04-08T01:00:00Z,26.4679,-82.0631,1.49,7.88,1111122 
SCCF RECON,ioos:station:SCCF:11:1,2011-04-08T02:00:00Z,26.4679,-82.0631,1.399,7.59,1111122 
SCCF RECON,ioos:station:SCCF:11:1,2011-04-08T03:00:00Z,26.4679,-82.0631,1.35,7.35,1111122 
SCCF RECON,ioos:station:SCCF:11:1,2011-04-08T04:00:00Z,26.4679,-82.0631,1.39,7.21,1111122 
SCCF RECON,ioos:station:SCCF:11:1,2011-04-08T05:00:00Z,26.4679,-82.0631,1.51,6.87,1111122 
SCCF RECON,ioos:station:SCCF:11:1,2011-04-08T06:00:00Z,26.4679,-82.0631,1.63,6.7,1111122 
SCCF RECON,ioos:station:SCCF:11:1,2011-04-08T07:00:00Z,26.4679,-82.0631,1.72,6.46,1111122 
SCCF RECON,ioos:station:SCCF:11:1,2011-04-08T08:00:00Z,26.4679,-82.0631,1.77,6.64,1111122 
SCCF RECON,ioos:station:SCCF:11:1,2011-04-08T09:00:00Z,26.4679,-82.0631,1.81,6.69,1111122 
SCCF RECON,ioos:station:SCCF:11:1,2011-04-08T10:00:00Z,26.4679,-82.0631,1.809,6.53,1111122 
SCCF RECON,ioos:station:SCCF:11:1,2011-04-08T11:00:00Z,26.4679,-82.0631,1.78,6.51,1111122 
SCCF RECON,ioos:station:SCCF:11:1,2011-04-08T12:00:00Z,26.4679,-82.0631,1.74,6.62,1111122 
SCCF RECON,ioos:station:SCCF:11:1,2011-04-08T13:00:00Z,26.4679,-82.0631,1.725,6.43,1111122 
SCCF RECON,ioos:station:SCCF:11:1,2011-04-08T14:00:00Z,26.4679,-82.0631,1.71,6.4,1111122 
SCCF RECON,ioos:station:SCCF:11:1,2011-04-08T15:00:00Z,26.4679,-82.0631,1.73,6.54,1111122 
SCCF RECON,ioos:station:SCCF:11:1,2011-04-08T16:00:00Z,26.4679,-82.0631,1.789,6.02,1111122 
SCCF RECON,ioos:station:SCCF:11:1,2011-04-08T17:00:00Z,26.4679,-82.0631,1.881,6.83,1111122 
SCCF RECON,ioos:station:SCCF:11:1,2011-04-08T18:00:00Z,26.4679,-82.0631,1.95,7.04,1111122 
SCCF RECON,ioos:station:SCCF:11:1,2011-04-08T19:00:00Z,26.4679,-82.0631,2.0,7.32,1111122 
SCCF RECON,ioos:station:SCCF:11:1,2011-04-08T20:00:00Z,26.4679,-82.0631,2.015,7.44,1111122 
SCCF RECON,ioos:station:SCCF:11:1,2011-04-08T21:00:00Z,26.4679,-82.0631,1.98,8.45,1111122 
SCCF RECON,ioos:station:SCCF:11:1,2011-04-08T22:00:00Z,26.4679,-82.0631,1.9,8.87,1111122 
SCCF RECON,ioos:station:SCCF:11:1,2011-04-08T23:00:00Z,26.4679,-82.0631,1.78,8.58,1111122 
SCCF RECON,ioos:station:SCCF:11:1,2011-04-09T00:00:00Z,26.4679,-82.0631,1.66,8.12,1111122 
SCCF RECON,ioos:station:SCCF:11:1,2011-04-09T01:00:00Z,26.4679,-82.0631,1.556,7.9,1111122 
SCCF RECON,ioos:station:SCCF:11:1,2011-04-09T02:00:00Z,26.4679,-82.0631,1.451,7.5,1111122 
SCCF RECON,ioos:station:SCCF:11:1,2011-04-09T03:00:00Z,26.4679,-82.0631,1.372,7.11,1111122 
SCCF RECON,ioos:station:SCCF:11:1,2011-04-09T04:00:00Z,26.4679,-82.0631,1.34,6.77,1111122 
SCCF RECON,ioos:station:SCCF:11:1,2011-04-09T05:00:00Z,26.4679,-82.0631,1.4,6.44,1111122 
SCCF RECON,ioos:station:SCCF:11:1,2011-04-09T06:00:00Z,26.4679,-82.0631,1.52,6.67,1111122 
SCCF RECON,ioos:station:SCCF:11:1,2011-04-09T07:00:00Z,26.4679,-82.0631,1.62,6.42,1111122 
SCCF RECON,ioos:station:SCCF:11:1,2011-04-09T08:00:00Z,26.4679,-82.0631,1.71,6.26,1111122 
SCCF RECON,ioos:station:SCCF:11:1,2011-04-09T09:00:00Z,26.4679,-82.0631,1.78,6.16,1111122 
SCCF RECON,ioos:station:SCCF:11:1,2011-04-09T10:00:00Z,26.4679,-82.0631,1.829,5.97,1111122 
SCCF RECON,ioos:station:SCCF:11:1,2011-04-09T11:00:00Z,26.4679,-82.0631,1.83,6.06,1111122 
SCCF RECON,ioos:station:SCCF:11:1,2011-04-09T12:00:00Z,26.4679,-82.0631,1.83,6.12,1111122 
SCCF RECON,ioos:station:SCCF:11:1,2011-04-09T13:00:00Z,26.4679,-82.0631,1.8,6.18,1111122 
SCCF RECON,ioos:station:SCCF:11:1,2011-04-09T14:00:00Z,26.4679,-82.0631,1.798,6.34,1111122 
SCCF RECON,ioos:station:SCCF:11:1,2011-04-09T15:00:00Z,26.4679,-82.0631,1.8,6.45,1111122 
SCCF RECON,ioos:station:SCCF:11:1,2011-04-09T16:00:00Z,26.4679,-82.0631,1.84,6.57,1111122 
SCCF RECON,ioos:station:SCCF:11:1,2011-04-09T17:00:00Z,26.4679,-82.0631,1.909,7.09,1111122 
SCCF RECON,ioos:station:SCCF:11:1,2011-04-09T18:00:00Z,26.4679,-82.0631,1.989,7.46,1111122 
SCCF RECON,ioos:station:SCCF:11:1,2011-04-09T19:00:00Z,26.4679,-82.0631,2.03,7.46,1111122 
SCCF RECON,ioos:station:SCCF:11:1,2011-04-09T20:00:00Z,26.4679,-82.0631,2.052,8.33,1111122 
SCCF RECON,ioos:station:SCCF:11:1,2011-04-09T21:00:00Z,26.4679,-82.0631,2.041,8.51,1111122 
SCCF RECON,ioos:station:SCCF:11:1,2011-04-09T22:00:00Z,26.4679,-82.0631,1.99,8.88,1111122 
SCCF RECON,ioos:station:SCCF:11:1,2011-04-09T23:00:00Z,26.4679,-82.0631,1.905,8.66,1111122 
SCCF RECON,ioos:station:SCCF:11:1,2011-04-10T00:00:00Z,26.4679,-82.0631,1.802,8.11,1111122 
SCCF RECON,ioos:station:SCCF:11:1,2011-04-10T01:00:00Z,26.4679,-82.0631,1.683,7.59,1111122 
SCCF RECON,ioos:station:SCCF:11:1,2011-04-10T02:00:00Z,26.4679,-82.0631,1.571,7.11,1111122 
SCCF RECON,ioos:station:SCCF:11:1,2011-04-10T03:00:00Z,26.4679,-82.0631,1.462,6.78,1111122 
SCCF RECON,ioos:station:SCCF:11:1,2011-04-10T04:00:00Z,26.4679,-82.0631,1.38,6.41,1111122 
SCCF RECON,ioos:station:SCCF:11:1,2011-04-10T05:00:00Z,26.4679,-82.0631,1.34,6.0,1111122 
SCCF RECON,ioos:station:SCCF:11:1,2011-04-10T06:00:00Z,26.4679,-82.0631,1.38,6.12,1111122 
SCCF RECON,ioos:station:SCCF:11:1,2011-04-10T07:00:00Z,26.4679,-82.0631,1.471,5.95,1111122 
SCCF RECON,ioos:station:SCCF:11:1,2011-04-10T08:00:00Z,26.4679,-82.0631,1.58,5.99,1111122 
SCCF RECON,ioos:station:SCCF:11:1,2011-04-10T09:00:00Z,26.4679,-82.0631,1.67,6.2,1111122 
SCCF RECON,ioos:station:SCCF:11:1,2011-04-10T10:00:00Z,26.4679,-82.0631,1.74,5.81,1111122 
SCCF RECON,ioos:station:SCCF:11:1,2011-04-10T11:00:00Z,26.4679,-82.0631,1.79,5.95,1111122 
SCCF RECON,ioos:station:SCCF:11:1,2011-04-10T12:00:00Z,26.4679,-82.0631,1.81,6.15,1111122 
SCCF RECON,ioos:station:SCCF:11:1,2011-04-10T13:00:00Z,26.4679,-82.0631,1.819,6.0,1111122 
SCCF RECON,ioos:station:SCCF:11:1,2011-04-10T14:00:00Z,26.4679,-82.0631,1.82,5.99,1111122 
SCCF RECON,ioos:station:SCCF:11:1,2011-04-10T15:00:00Z,26.4679,-82.0631,1.82,5.96,1111122 
SCCF RECON,ioos:station:SCCF:11:1,2011-04-10T16:00:00Z,26.4679,-82.0631,1.821,6.24,1111122 
SCCF RECON,ioos:station:SCCF:11:1,2011-04-10T17:00:00Z,26.4679,-82.0631,1.844,6.4,1111122 
SCCF RECON,ioos:station:SCCF:11:1,2011-04-10T18:00:00Z,26.4679,-82.0631,1.891,7.4,1111122 
SCCF RECON,ioos:station:SCCF:11:1,2011-04-10T19:00:00Z,26.4679,-82.0631,1.944,7.97,1111122 
SCCF RECON,ioos:station:SCCF:11:1,2011-04-10T20:00:00Z,26.4679,-82.0631,2.008,8.32,1111122 
SCCF RECON,ioos:station:SCCF:11:1,2011-04-10T21:00:00Z,26.4679,-82.0631,2.04,7.87,1111122 
SCCF RECON,ioos:station:SCCF:11:1,2011-04-10T22:00:00Z,26.4679,-82.0631,2.036,8.06,1111122 
SCCF RECON,ioos:station:SCCF:11:1,2011-04-10T23:00:00Z,26.4679,-82.0631,2.0,8.73,1111122 
SCCF RECON,ioos:station:SCCF:11:1,2011-04-11T00:00:00Z,26.4679,-82.0631,1.93,8.51,1111122 
SCCF RECON,ioos:station:SCCF:11:1,2011-04-11T01:00:00Z,26.4679,-82.0631,1.822,7.89,1111122 
SCCF RECON,ioos:station:SCCF:11:1,2011-04-11T02:00:00Z,26.4679,-82.0631,1.72,7.23,1111122 
SCCF RECON,ioos:station:SCCF:11:1,2011-04-11T03:00:00Z,26.4679,-82.0631,1.611,6.75,1111122 
SCCF RECON,ioos:station:SCCF:11:1,2011-04-11T04:00:00Z,26.4679,-82.0631,1.497,6.47,1111122 
SCCF RECON,ioos:station:SCCF:11:1,2011-04-11T05:00:00Z,26.4679,-82.0631,1.41,6.1,1111122 
SCCF RECON,ioos:station:SCCF:11:1,2011-04-11T06:00:00Z,26.4679,-82.0631,1.352,5.81,1111122 
SCCF RECON,ioos:station:SCCF:11:1,2011-04-11T07:00:00Z,26.4679,-82.0631,1.38,6.0,1111122 
SCCF RECON,ioos:station:SCCF:11:1,2011-04-11T08:00:00Z,26.4679,-82.0631,1.47,5.8,1111122 
SCCF RECON,ioos:station:SCCF:11:1,2011-04-11T09:00:00Z,26.4679,-82.0631,1.58,5.6,1111122 
SCCF RECON,ioos:station:SCCF:11:1,2011-04-11T10:00:00Z,26.4679,-82.0631,1.67,5.77,1111122 
SCCF RECON,ioos:station:SCCF:11:1,2011-04-11T11:00:00Z,26.4679,-82.0631,1.75,5.56,1111122 
SCCF RECON,ioos:station:SCCF:11:1,2011-04-11T12:00:00Z,26.4679,-82.0631,1.795,5.97,1111122 
SCCF RECON,ioos:station:SCCF:11:1,2011-04-11T13:00:00Z,26.4679,-82.0631,1.83,5.55,1111122 
SCCF RECON,ioos:station:SCCF:11:1,2011-04-11T14:00:00Z,26.4679,-82.0631,1.852,6.04,1111122 
SCCF RECON,ioos:station:SCCF:11:1,2011-04-11T15:00:00Z,26.4679,-82.0631,1.868,6.11,1111122 
SCCF RECON,ioos:station:SCCF:11:1,2011-04-11T16:00:00Z,26.4679,-82.0631,1.833,6.09,1111122 
SCCF RECON,ioos:station:SCCF:11:1,2011-04-11T17:00:00Z,26.4679,-82.0631,1.786,6.51,1111122 
SCCF RECON,ioos:station:SCCF:11:1,2011-04-11T18:00:00Z,26.4679,-82.0631,1.81,5.48,1111122 
SCCF RECON,ioos:station:SCCF:11:1,2011-04-11T19:00:00Z,26.4679,-82.0631,1.851,6.76,1111122 
SCCF RECON,ioos:station:SCCF:11:1,2011-04-11T20:00:00Z,26.4679,-82.0631,1.9,6.87,1111122 
SCCF RECON,ioos:station:SCCF:11:1,2011-04-11T21:00:00Z,26.4679,-82.0631,1.95,7.12,1111122 